User: anonymous   Login
Location: Unspecified
(0.0000°N, 0.0000°E)
Time: 00:17:01
(UTC+00:00)
Language:

GAOFEN-5 - Orbit

View from above orbital plane
View from above orbital plane
View from above satellite
View from above satellite

Ground track
Ground track

The orbit is defined by the following mean orbital elements,

1 43461U          26145.38639411 +.00000000 +00000-0 +71848-4 0 00006
2 43461  98.4558 116.4963 0002598 124.6440 235.5005 14.60586669    05
Epoch (UTC): 25 May 2026 09:16:24
Eccentricity: 0.0002598
inclination: 98.4558°
perigee height: 689 km
apogee height: 693 km
right ascension of ascending node: 116.4963°
argument of perigee: 124.6440°
revolutions per day: 14.60586669
mean anomaly at epoch: 235.5005°

The dashed part of the orbit path shows where the satellite is in the earth's shadow,  

DLR